Weather History for Poplar Bluff, MO

Change the Weather History Date:

Sunday, February 3, 2013

  Actual Average Record
Temperature  
Mean Temperature 42 °F -  
Max Temperature 50 °F 44 °F 73 °F (1943)
Min Temperature 33 °F 26 °F 2 °F (1951)
Degree Days  
Heating Degree Days 24    
Moisture  
Dew Point 25 °F    
Average Humidity 57    
Maximum Humidity 82    
Minimum Humidity 31    
Precipitation  
Precipitation 0.00 in - - ()
Sea Level Pressure  
Sea Level Pressure 30.13 in    
Wind  
Wind Speed 7 mph (West)    
Max Wind Speed 21 mph    
Max Gust Speed 28 mph    
Visibility 10 miles    
Events      
Averages and records for this station are not official NWS values.
T = Trace of Precipitation, MM = Missing Value Source: NWS Daily Summary

Daily Weather History Graph

Daily Weather History Graph

Search for Another Location

Airport:

Trip Planner

Search our weather history database for the weather conditions in past years. The results will help you decide how hot, cold, wet, or windy it might be!

Date:

Astronomy

Feb. 03, 2013 Rise Set
Actual Time 7:01 AM CST 5:29 PM CST
Civil Twilight 6:34 AM CST 5:56 PM CST
Nautical Twilight 6:03 AM CST 6:27 PM CST
Astronomical Twilight 5:33 AM CST 6:57 PM CST
Moon 12:28 AM CST (2/3) 11:07 AM CST (2/3)
Length of Visible Light 11h 22m
Length of Day
10h 27m
Waning Gibbous, 48% of the Moon is Illuminated
Feb 3
Waning Gibbous
Feb 10
New
Feb 17
First Quarter
Feb 25
Full
Mar 4
Last Quarter

Hourly Weather History & Observations

Time (CST) Temp. Windchill Dew Point Humidity Pressure Visibility Wind Dir Wind Speed Gust Speed Precip Events Conditions
12:53 AM 34.0 °F 29.8 °F 28.0 °F 79% 30.10 in 10.0 mi SW 4.6 mph - N/A   Clear
1:53 AM 37.9 °F 33.5 °F 30.0 °F 73% 30.06 in 10.0 mi SW 5.8 mph - N/A   Mostly Cloudy
2:53 AM 37.0 °F 32.4 °F 28.9 °F 73% 30.06 in 10.0 mi WSW 5.8 mph - N/A   Clear
3:53 AM 35.1 °F 31.0 °F 28.0 °F 76% 30.07 in 10.0 mi SW 4.6 mph - N/A   Clear
4:53 AM 34.0 °F 29.8 °F 28.0 °F 79% 30.08 in 10.0 mi SSW 4.6 mph - N/A   Clear
5:53 AM 33.1 °F 30.0 °F 28.0 °F 82% 30.10 in 10.0 mi SW 3.5 mph - N/A   Clear
6:53 AM 33.1 °F 27.7 °F 27.0 °F 78% 30.12 in 10.0 mi SSW 5.8 mph - N/A   Clear
7:53 AM 39.0 °F 36.8 °F 28.9 °F 67% 30.13 in 10.0 mi SW 3.5 mph - N/A   Clear
8:53 AM 45.0 °F 40.6 °F 28.9 °F 53% 30.14 in 10.0 mi WNW 8.1 mph - N/A   Clear
9:53 AM 46.9 °F - 28.0 °F 48% 30.14 in 10.0 mi NW 12.7 mph 21.9 mph N/A   Clear
10:53 AM 46.9 °F - 26.1 °F 44% 30.18 in 10.0 mi NW 20.7 mph 27.6 mph N/A   Clear
11:53 AM 48.9 °F - 25.0 °F 39% 30.18 in 10.0 mi WNW 16.1 mph - N/A   Clear
12:53 PM 48.9 °F - 19.9 °F 32% 30.17 in 10.0 mi NW 16.1 mph 26.5 mph N/A   Clear
1:53 PM 50.0 °F - 19.9 °F 31% 30.16 in 10.0 mi NNW 15.0 mph - N/A   Clear
2:53 PM 50.0 °F - 19.9 °F 31% 30.16 in 10.0 mi NW 11.5 mph - N/A   Clear
3:53 PM 50.0 °F - 19.9 °F 31% 30.16 in 10.0 mi North 8.1 mph - N/A   Clear
4:53 PM 46.9 °F - 24.1 °F 41% 30.16 in 10.0 mi NNW 5.8 mph - N/A   Clear
5:53 PM 41.0 °F - 25.0 °F 53% 30.17 in 10.0 mi Calm Calm - N/A   Clear
6:53 PM 37.0 °F - 21.0 °F 52% 30.16 in 10.0 mi Calm Calm - N/A   Clear
7:53 PM 37.0 °F - 23.0 °F 57% 30.15 in 10.0 mi Calm Calm - N/A   Clear
8:53 PM 37.9 °F 32.7 °F 25.0 °F 60% 30.14 in 9.0 mi SE 6.9 mph - N/A   Clear
9:53 PM 36.0 °F 31.1 °F 26.1 °F 67% 30.13 in 10.0 mi SE 5.8 mph - N/A   Clear
10:53 PM 36.0 °F 32.1 °F 26.1 °F 67% 30.10 in 10.0 mi SE 4.6 mph - N/A   Clear
11:53 PM 36.0 °F - 26.1 °F 67% 30.09 in 10.0 mi Calm Calm - N/A   Clear